"Time","Temp","Dewpoint","Humidity","Pressure","Direction","Speed","Gust","Precip","PrecipRate"
"00:04:59","28.2","26.8","94.4","30.22","330","1.9","4","0.00","0.00"
"00:09:59","28.2","26.7","94","30.22","331","1.9","5","0.00","0.00"
"00:14:56","28.2","26.7","94","30.22","346","2.1","7","0.00","0.00"
"00:19:59","28.2","26.7","94","30.22","348","1.3","6.9","0.00","0.00"
"00:24:57","28.2","26.7","94","30.22","340","0.9","3.5","0.00","0.00"
"00:29:57","28.2","26.7","94","30.23","6","1.3","4","0.00","0.00"
"00:34:57","28.2","26.7","94","30.23","5","0.2","3","0.00","0.00"
"00:39:58","28.3","26.8","94","30.23","5","0.6","3.5","0.00","0.00"
"00:44:57","28.3","26.8","94","30.23","357","1.2","5","0.00","0.00"
"00:49:59","28.3","26.8","94","30.22","349","1","5","0.00","0.00"
"00:54:59","28.3","26.8","94","30.22","350","0.5","2.3","0.00","0.00"
"00:59:58","28.3","27","94.5","30.22","346","1.1","4","0.00","0.00"
"01:04:58","28.4","27","94.4","30.20","346","1.7","5","0.00","0.00"
"01:09:56","28.4","27.1","94.6","30.20","343","1.6","5","0.00","0.00"
"01:14:59","28.4","27.2","95","30.20","338","1.9","4.6","0.00","0.00"
"01:19:56","28.5","27.3","95","30.20","344","1.3","5","0.00","0.00"
"01:24:59","28.5","27.3","95","30.20","2","1.8","5","0.00","0.00"
"01:29:58","28.5","27.3","95","30.20","345","1.5","4","0.00","0.00"
"01:34:59","28.5","27.3","95","30.19","340","1.8","4","0.00","0.00"
"01:39:55","28.5","27.3","95","30.19","336","1.8","5","0.00","0.00"
"01:44:58","28.5","27.3","95","30.20","335","2.2","4.6","0.00","0.00"
"01:49:57","28.5","27.3","95","30.20","332","1.4","3.5","0.00","0.00"
"01:54:57","28.6","27.4","95","30.20","338","1.9","5","0.00","0.00"
"01:59:57","28.6","27.4","95","30.21","350","2.5","6","0.00","0.00"
"02:04:57","28.6","27.4","95","30.21","338","2.2","5","0.00","0.00"
"02:09:59","28.7","27.4","95","30.21","340","1.4","4","0.00","0.00"
"02:14:59","28.7","27.4","95","30.21","354","0.8","4","0.00","0.00"
"02:19:58","28.7","27.4","95","30.19","360","0.5","2.3","0.00","0.00"
"02:24:56","28.7","27.4","95","30.19","351","0.7","3.5","0.00","0.00"
"02:29:57","28.7","27.4","95","30.20","347","1.2","4","0.00","0.00"
"02:34:59","28.7","27.4","94.8","30.20","37","1","3.5","0.00","0.00"
"02:39:58","28.6","27.2","94.3","30.20","345","0.9","4","0.00","0.00"
"02:44:58","28.6","27.3","94.9","30.20","346","1.8","4","0.00","0.00"
"02:49:57","28.5","27.2","94.7","30.17","341","1.5","6","0.00","0.00"
"02:54:57","28.5","27.3","95","30.17","347","2","5.8","0.00","0.00"
"02:59:57","28.5","27.3","95","30.19","7","0.9","4.6","0.00","0.00"
"03:04:57","28.5","27.3","95","30.19","350","1.8","4","0.00","0.00"
"03:09:59","28.5","27.3","95","30.19","356","2.2","4","0.00","0.00"
"03:14:56","28.5","27.3","95","30.19","2","1.4","5","0.00","0.00"
"03:19:57","28.5","27.3","95","30.18","346","1.3","4","0.00","0.00"
"03:24:56","28.5","27.3","95","30.18","337","0.5","4","0.00","0.00"
"03:29:59","28.5","27.3","95","30.18","344","1.2","4","0.00","0.00"
"03:34:59","28.5","27.3","95","30.17","347","0.9","4","0.00","0.00"
"03:39:56","28.5","27.3","95","30.17","336","1.5","5","0.00","0.00"
"03:44:58","28.5","27.3","95","30.17","345","2.3","5","0.00","0.00"
"03:49:58","28.5","27.3","95","30.17","343","2.7","5","0.00","0.00"
"03:54:57","28.4","27.2","95","30.17","339","1.5","4","0.00","0.00"
"03:59:55","28.4","27.2","95","30.17","347","0.8","4","0.00","0.00"
"04:04:55","28.4","27.2","95","30.17","338","0.8","4","0.00","0.00"
"04:09:58","28.5","27.3","95","30.17","338","0.8","3.5","0.00","0.00"
"04:14:57","28.5","27.3","95","30.17","337","1","3.5","0.00","0.00"
"04:19:55","28.5","27.3","95","30.16","352","1.8","6","0.00","0.00"
"04:24:57","28.5","27.3","95","30.16","332","1.5","5.8","0.00","0.00"
"04:29:57","28.5","27.3","95","30.16","349","1.2","4","0.00","0.00"
"04:34:56","28.5","27.3","95","30.16","347","1","5","0.00","0.00"
"04:39:56","28.5","27.3","95","30.16","343","1.6","5","0.00","0.00"
"04:44:56","28.5","27.3","95","30.16","339","1.3","3.5","0.00","0.00"
"04:49:58","28.5","27.3","95","30.16","341","0.9","4","0.00","0.00"
"04:54:58","28.5","27.3","95","30.16","342","0.9","4","0.00","0.00"
"04:59:56","28.5","27.3","95","30.16","346","0.9","3.5","0.00","0.00"
"05:04:56","28.5","27.3","95","30.16","334","1.6","5","0.00","0.00"
"05:09:59","28.5","27.3","95","30.16","340","1.5","4.6","0.00","0.00"
"05:14:57","28.5","27.3","95","30.18","344","0.9","4","0.00","0.00"
"05:19:58","28.5","27.3","95","30.18","348","0.9","3.5","0.00","0.00"
"05:24:56","28.5","27.3","95","30.18","348","0.7","3.5","0.00","0.00"
"05:29:58","28.5","27.3","95","30.18","348","0.5","3.5","0.00","0.00"
"05:34:55","28.5","27.3","95","30.17","348","0.3","2.3","0.00","0.00"
"05:39:57","28.5","27.3","95","30.17","348","0.7","3.5","0.00","0.00"
"05:44:59","28.5","27.3","95","30.17","348","1.2","4","0.00","0.00"
"05:49:56","28.5","27.3","95","30.17","345","1.2","4","0.00","0.00"
"05:54:57","28.5","27.3","95","30.17","345","0.5","3.5","0.00","0.00"
"05:59:58","28.5","27.3","95","30.17","354","0.9","2.3","0.00","0.00"
"06:04:56","28.5","27.3","95","30.16","17","0.9","3.5","0.00","0.00"
"06:09:56","28.5","27.3","95","30.16","353","0.6","4","0.00","0.00"
"06:14:58","28.5","27.3","95","30.16","349","1.7","5","0.00","0.00"
"06:19:59","28.5","27.3","95","30.15","61","0.4","3.5","0.00","0.00"
"06:24:56","28.5","27.3","95","30.15","49","0.5","2.3","0.00","0.00"
"06:29:58","28.5","27.3","95","30.16","350","1.3","4","0.00","0.00"
"06:34:56","28.4","27.2","95","30.16","346","1.2","5","0.00","0.00"
"06:39:59","28.4","27.2","95","30.16","1","1.3","6","0.00","0.00"
"06:44:57","28.4","27.2","95","30.17","357","1.5","5","0.00","0.00"
"06:49:59","28.3","27.1","95","30.17","350","2.2","5","0.00","0.00"
"06:54:57","28.3","27.1","95","30.17","334","1.4","4","0.00","0.00"
"06:59:59","28.3","27.1","95","30.17","325","1.2","5","0.00","0.00"
"07:04:58","28.2","27","95","30.17","57","1.1","4.6","0.00","0.00"
"07:09:56","28.3","27.1","95","30.17","17","1.1","5","0.00","0.00"
"07:14:56","28.3","27.1","95","30.19","348","1.7","4.6","0.00","0.00"
"07:19:57","28.2","27","95","30.19","343","1.5","5","0.00","0.00"
"07:24:56","28.2","27","95","30.19","343","1.8","6","0.00","0.00"
"07:29:56","28.2","27","95","30.20","344","1.5","4","0.00","0.00"
"07:34:57","28.2","26.9","94.6","30.20","338","1.9","6","0.00","0.00"
"07:39:56","28.2","26.7","94","30.20","350","2.1","7","0.00","0.00"
"07:44:57","28.2","26.7","94","30.20","344","1.8","5","0.00","0.00"
"07:49:58","28.2","26.7","94","30.19","343","1.2","5","0.00","0.00"
"07:54:59","28.2","26.7","94","30.19","335","1.4","6","0.00","0.00"
"07:59:58","28.2","26.7","94","30.20","345","1.7","6","0.00","0.00"
"08:04:58","28.3","26.8","94","30.20","349","2","7","0.00","0.00"
"08:09:56","28.3","26.8","94","30.20","339","2.4","7","0.00","0.00"
"08:14:59","28.3","26.8","94","30.20","347","1.8","6","0.00","0.00"
"08:19:55","28.4","26.9","94","30.20","331","0.8","4","0.00","0.00"
"08:24:56","28.4","26.9","94","30.20","338","1.2","4","0.00","0.00"
"08:29:59","28.4","26.9","94","30.20","32","1","3.5","0.00","0.00"
"08:34:59","28.5","27","94","30.17","14","0.7","4","0.00","0.00"
"08:39:57","28.5","27","94","30.17","348","1.2","4","0.00","0.00"
"08:44:59","28.6","27.1","94","30.19","348","1.4","5","0.00","0.00"
"08:49:56","28.7","27.2","94","30.19","344","2.2","5","0.00","0.00"
"08:54:58","28.9","27.4","94","30.19","344","2.4","5","0.00","0.00"
"08:59:59","29","27.5","94","30.19","344","1.5","4","0.00","0.00"
"09:04:57","29.1","27.6","94","30.19","337","1.5","4","0.00","0.00"
"09:09:59","29.2","27.7","94","30.19","341","2.5","6","0.00","0.00"
"09:14:59","29.3","27.8","94","30.19","359","2.3","6","0.00","0.00"
"09:19:56","29.4","27.9","94","30.19","342","1.3","5","0.00","0.00"
"09:24:58","29.4","27.9","93.8","30.19","343","2","4","0.00","0.00"
"09:29:56","29.4","27.6","93","30.19","343","1.8","4","0.00","0.00"
"09:34:58","29.4","27.6","93","30.19","355","1.1","3.5","0.00","0.00"
"09:39:56","29.4","27.8","93.4","30.19","338","0.9","3.5","0.00","0.00"
"09:44:57","29.6","28.1","94","30.19","336","1.5","4","0.00","0.00"
"09:49:58","29.8","28.2","93.8","30.19","348","2.5","6","0.00","0.00"
"09:54:56","29.8","28","93","30.19","344","2.1","5","0.00","0.00"
"09:59:58","29.9","28.1","93","30.21","335","1.4","4","0.00","0.00"
"10:04:57","29.9","28","92.5","30.21","345","3","7","0.00","0.00"
"10:09:59","29.9","27.9","92","30.21","352","3.4","6","0.00","0.00"
"10:14:57","30","28.1","92.5","30.21","354","2.1","6","0.00","0.00"
"10:19:56","30.1","28.2","92.8","30.19","6","2.7","7","0.00","0.00"
"10:24:57","30.2","28.2","92","30.19","339","2.4","6","0.00","0.00"
"10:29:58","30.3","28.3","92","30.19","345","2.7","6","0.00","0.00"
"10:34:59","30.5","28.5","92","30.19","341","2.3","6","0.00","0.00"
"10:39:58","30.6","28.6","92","30.19","343","3.2","9","0.00","0.00"
"10:44:56","30.8","28.5","91.2","30.19","336","3.9","10","0.00","0.00"
"10:49:58","31","28.8","91.2","30.17","330","2.1","7","0.00","0.00"
"10:54:56","31.3","29","91","30.17","335","3","10.4","0.00","0.00"
"10:59:57","31.5","29.2","91","30.17","337","3.3","9.2","0.00","0.00"
"11:04:56","31.6","29","90.1","30.17","344","3.3","7","0.00","0.00"
"11:09:58","31.7","29.1","90","30.17","335","2.7","5.8","0.00","0.00"
"11:14:57","31.7","29.1","90","30.17","334","3.8","10.4","0.00","0.00"
"11:19:58","31.7","29.1","90","30.17","332","2.7","6.9","0.00","0.00"
"11:24:57","31.8","29.2","90","30.17","346","2.9","6","0.00","0.00"
"11:29:58","31.9","29.3","90","30.17","331","2.6","6","0.00","0.00"
"11:34:56","32","29.4","90","30.17","346","1.8","7","0.00","0.00"
"11:39:56","32.2","29.5","89.7","30.17","352","3.3","7","0.00","0.00"
"11:44:57","32.2","29.4","89.3","30.17","351","2.3","8.1","0.00","0.00"
"11:49:59","32.3","29.7","90","30.17","347","1.5","6","0.01","0.01"
"11:54:57","32.4","29.6","89.3","30.17","341","1.8","7","0.01","0.01"
"11:59:59","32.5","29.4","88.4","30.17","349","4.1","10.4","0.01","0.01"
"12:04:59","32.5","29.3","88","30.16","340","4.8","10","0.01","0.01"
"12:09:56","32.4","29.1","87.5","30.16","334","3.9","11.5","0.01","0.01"
"12:14:59","32.4","29.2","87.7","30.16","337","3.4","10","0.01","0.01"
"12:19:56","32.5","29.1","87.3","30.15","336","3.9","8.1","0.01","0.01"
"12:24:58","32.6","29.4","88","30.15","328","2.5","5","0.01","0.01"
"12:29:57","32.7","29.5","88","30.16","351","2.9","9.2","0.01","0.01"
"12:34:56","32.9","29.7","88","30.16","324","2.6","6","0.01","0.01"
"12:39:59","33.1","29.9","88","30.16","1","1.9","5.8","0.01","0.01"
"12:44:58","33.4","30.2","88","30.16","343","2.1","6","0.01","0.01"
"12:49:59","33.8","30.5","87.7","30.15","341","2.1","4.6","0.01","0.01"
"12:54:58","34.3","31","87.7","30.15","344","1.9","6","0.02","0.01"
"12:59:57","34.8","31.1","86","30.15","347","4.2","12","0.02","0.01"
"13:04:56","34.8","30.6","84.3","30.14","340","4.7","11.5","0.02","0.01"
"13:09:58","34.7","30.6","84.8","30.14","352","2.2","7","0.03","0.02"
"13:14:59","34.8","30.8","85.2","30.14","343","3","7","0.03","0.02"
"13:19:58","34.9","31.2","86.2","30.14","356","1.5","5","0.04","0.03"
"13:24:57","35.1","31.1","85.3","30.14","345","2.4","8.1","0.04","0.03"
"13:29:56","35","30.9","84.8","30.14","349","1.5","6","0.05","0.04"
"13:34:59","35","30.9","85","30.13","345","1.5","5","0.05","0.04"
"13:39:56","35.1","31.1","85.3","30.13","349","2.1","6","0.06","0.04"
"13:44:56","35.2","31","84.4","30.13","344","2.3","5.8","0.06","0.05"
"13:49:56","35.3","31.1","84.7","30.13","341","1.6","5","0.06","0.05"
"13:54:56","35.5","31.1","84","30.13","333","2.1","6","0.07","0.06"
"13:59:57","35.7","31.3","84","30.13","355","2.6","6","0.07","0.05"
"14:04:57","35.8","31.4","84","30.12","338","2.1","6","0.07","0.05"
"14:09:59","36.2","31.8","84","30.12","334","1.6","5","0.08","0.06"
"14:14:58","36.8","32.2","83.2","30.12","339","2.1","5","0.09","0.06"
"14:19:57","37.6","32.8","82.7","30.12","335","1","4","0.10","0.06"
"14:24:59","38.3","32.8","80.6","30.12","328","1.8","5","0.11","0.06"
"14:29:56","38.6","33","80","30.12","353","1.8","4","0.12","0.07"
"14:34:59","38.8","33.1","79.6","30.11","336","2.5","9.2","0.12","0.07"
"14:39:56","38.8","32.8","79","30.11","341","2.6","6.9","0.13","0.08"
"14:44:55","38.6","32.5","78.7","30.11","337","3.1","10","0.14","0.08"
"14:49:59","38.2","31.9","78.1","30.11","343","2.7","9.2","0.14","0.08"
"14:54:58","37.9","31.5","77.6","30.11","355","3.4","9.2","0.14","0.08"
"14:59:57","37.7","31.2","77.4","30.12","330","2.8","7","0.15","0.08"
"15:04:57","37.6","31.4","78","30.12","347","3.2","7","0.15","0.08"
"15:09:56","37.4","31.2","78","30.12","351","2.8","5","0.15","0.08"
"15:14:58","37.3","31","77.8","30.12","322","3.8","8.1","0.16","0.08"
"15:19:56","37.1","31","78.2","30.11","338","3.6","7","0.16","0.07"
"15:24:58","37.1","30.9","78","30.11","337","3.3","7","0.16","0.06"
"15:29:58","37.1","31","78.4","30.12","349","3.1","7","0.16","0.05"
"15:34:58","37.1","30.8","77.5","30.12","345","3","10.4","0.17","0.05"
"15:39:58","37.1","30.8","77.7","30.12","347","3","6","0.17","0.05"
"15:44:57","37","30.7","77.7","30.12","341","3.7","11","0.17","0.04"
"15:49:56","36.9","30.5","77.5","30.12","339","5.4","12","0.18","0.04"
"15:54:59","36.7","30.5","78","30.12","348","3.5","11.5","0.18","0.04"
"15:59:57","36.6","30.5","78.5","30.13","332","2.9","5","0.18","0.04"
"16:04:58","36.5","30.5","78.8","30.13","342","2.6","6","0.18","0.03"
"16:09:56","36.5","30.6","79","30.13","335","2.1","4","0.18","0.03"
"16:14:56","36.4","30.5","79","30.13","323","2.1","4","0.18","0.03"
"16:19:56","36.4","30.7","79.9","30.13","337","2.2","9","0.18","0.02"
"16:24:56","36.3","30.4","79","30.13","337","3.6","9.2","0.19","0.03"
"16:29:59","36.2","30.4","79.4","30.14","306","2","5","0.19","0.03"
"16:34:58","36.2","30.3","79","30.14","342","2.8","6","0.19","0.03"
"16:39:57","36.2","30.3","79","30.14","336","3.7","9","0.19","0.02"
"16:44:56","36.2","30.3","79","30.14","337","3.6","10.4","0.19","0.02"
"16:49:59","36.2","30.3","79","30.14","337","2.3","7","0.19","0.02"
"16:54:58","36.1","30.2","79","30.14","347","3.7","10.4","0.19","0.01"
"16:59:57","36.1","30.2","79","30.14","320","2.9","9.2","0.19","0.01"
"17:04:57","36.1","30.2","79","30.14","323","2.4","7","0.20","0.02"
"17:09:59","36","30.1","79","30.14","340","2.9","7","0.20","0.02"
"17:14:59","35.9","30","79","30.14","328","2.3","4","0.20","0.02"
"17:19:58","35.9","30","79","30.14","325","1.6","4","0.20","0.02"
"17:24:57","35.9","30","79","30.14","349","2.5","6","0.20","0.02"
"17:29:57","35.9","30.1","79.3","30.15","345","1.9","4","0.20","0.01"
"17:34:58","35.8","30.1","79.8","30.15","334","1.5","3.5","0.20","0.01"
"17:39:59","35.7","30.1","80","30.15","350","2.3","5","0.20","0.01"
"17:44:58","35.6","30","80","30.15","335","1.5","4","0.20","0.01"
"17:49:58","35.5","30","80.2","30.15","331","1.5","7","0.20","0.01"
"17:54:58","35.5","29.9","80","30.15","342","3.3","6.9","0.20","0.01"
"17:59:57","35.4","29.8","80","30.15","315","3","6","0.20","0.01"
"18:04:58","35.4","29.9","80.3","30.15","330","2.3","7","0.20","0.01"
"18:09:56","35.4","29.8","79.9","30.15","330","2.9","6.9","0.20","0.00"
"18:14:57","35.4","29.8","79.9","30.15","351","2","6","0.20","0.00"
"18:19:58","35.4","29.7","79.7","30.15","331","2","7","0.20","0.00"
"18:24:58","35.4","29.4","79","30.15","315","2.5","9.2","0.20","0.00"
"18:29:58","35.4","29.2","78","30.15","330","3.5","9.2","0.20","0.00"
"18:34:57","35.4","29.2","78","30.15","325","3.8","7","0.20","0.00"
"18:39:57","35.4","29.1","77.7","30.15","317","4","7","0.20","0.00"
"18:44:57","35.3","28.8","77","30.16","300","3.6","9","0.20","0.00"
"18:49:56","35.3","28.5","76.2","30.16","321","4.6","8.1","0.20","0.00"
"18:54:59","35.2","28.2","75.3","30.16","321","4.1","8.1","0.20","0.00"
"18:59:58","35.2","27.6","73.5","30.17","322","4.4","7","0.20","0.00"
"19:04:57","35.1","27.5","73.4","30.17","322","4","10.4","0.20","0.00"
"19:09:59","35.1","27.2","72.7","30.17","330","3.2","7","0.21","0.01"
"19:14:56","35","26.6","71.3","30.17","332","4.1","13","0.21","0.01"
"19:19:59","35","26.4","70.5","30.17","330","4.1","10.4","0.21","0.01"
"19:24:59","35","26.2","70.1","30.17","336","4.6","12","0.21","0.01"
"19:29:59","35","26.2","70","30.17","332","3.3","10.4","0.21","0.01"
"19:34:58","34.9","26.1","70.2","30.17","331","2","5","0.21","0.01"
"19:39:58","34.8","26","70.1","30.17","326","3.4","12","0.21","0.01"
"19:44:57","34.8","25.7","69.2","30.17","332","4.5","11.5","0.21","0.01"
"19:49:56","34.8","25.5","68.6","30.17","335","5","11.5","0.21","0.01"
"19:54:59","34.8","25.7","69","30.17","344","3.3","6","0.21","0.01"
"19:59:58","34.7","25.6","69","30.18","316","3.7","10","0.21","0.01"
"20:04:57","34.6","25.5","69","30.18","342","4.3","10.4","0.21","0.01"
"20:09:59","34.6","25.5","69","30.18","335","3.6","9.2","0.21","0.01"
"20:14:56","34.6","25.7","69.7","30.18","325","3.7","7","0.21","0.00"
"20:19:59","34.6","25.4","68.9","30.18","310","5.6","14","0.21","0.00"
"20:24:58","34.6","25.4","68.7","30.18","331","6.6","13","0.21","0.00"
"20:29:57","34.6","25.1","68","30.18","330","5.6","11.5","0.21","0.00"
"20:34:57","34.5","25.1","68.2","30.18","329","3.7","10","0.21","0.00"
"20:39:57","34.4","24.9","68","30.18","343","3.8","11","0.21","0.00"
"20:44:57","34.3","24.8","68","30.19","336","2.9","10.4","0.21","0.00"
"20:49:56","34.1","24.7","68.2","30.19","319","2.8","6","0.21","0.00"
"20:54:57","34","24.7","68.4","30.19","332","2.8","10.4","0.21","0.00"
"20:59:57","34","24.4","67.9","30.19","328","5.3","13","0.21","0.00"
"21:04:57","33.9","24.4","67.9","30.19","324","5.6","11.5","0.21","0.00"
"21:09:59","33.9","24.3","67.6","30.19","320","7.4","13","0.21","0.00"
"21:14:56","33.8","24.1","67.2","30.19","337","7.4","15","0.21","0.00"
"21:19:57","33.7","23.9","67","30.19","342","9.1","18.4","0.21","0.00"
"21:24:58","33.5","23.6","66.6","30.19","328","9","17","0.21","0.00"
"21:29:58","33.3","23.5","67","30.19","338","6.9","17.3","0.21","0.00"
"21:34:59","33.1","23.6","67.8","30.19","332","5.3","12","0.21","0.00"
"21:39:56","33","23.4","67.4","30.19","340","8.6","15","0.21","0.00"
"21:44:59","32.9","23.4","67.8","30.20","338","5.8","16.1","0.21","0.00"
"21:49:59","32.8","23.4","68","30.20","318","5.8","13","0.21","0.00"
"21:54:56","32.7","23","67.3","30.20","323","8.6","17.3","0.21","0.00"
"21:59:56","32.6","22.8","66.8","30.20","316","6.3","15","0.21","0.00"
"22:04:55","32.5","22.7","66.8","30.20","315","7.5","14","0.21","0.00"
"22:09:57","32.3","22.6","66.9","30.20","322","7.2","15","0.21","0.00"
"22:14:59","32.3","22.3","66.2","30.20","334","7.1","20","0.21","0.00"
"22:19:59","32.1","22.3","66.7","30.20","331","6.6","16","0.21","0.00"
"22:24:56","31.9","22","66.6","30.20","333","8.2","17.3","0.21","0.00"
"22:29:59","31.7","21.7","66.2","30.20","333","7.4","17","0.21","0.00"
"22:34:56","31.6","21.5","66","30.20","338","8.3","19.6","0.21","0.00"
"22:39:58","31.5","21.4","66","30.20","338","9.7","17","0.21","0.00"
"22:44:59","31.5","21.4","66","30.20","316","8.8","16.1","0.21","0.00"
"22:49:58","31.4","21.2","65.8","30.20","323","10.3","18.4","0.21","0.00"
"22:54:57","31.4","21.2","65.8","30.20","335","8.2","18.4","0.21","0.00"
"22:59:57","31.3","21.2","65.9","30.21","326","6.7","15","0.21","0.00"
"23:04:56","31.2","21.2","66","30.21","330","5.3","15","0.21","0.00"
"23:09:58","31.1","21.1","66","30.21","336","6.1","13","0.21","0.00"
"23:14:59","31.1","21.1","66.1","30.21","340","4.9","10.4","0.21","0.00"
"23:19:59","31.1","21","66","30.21","315","5","12","0.21","0.00"
"23:24:58","31","21","66","30.21","333","5.2","11.5","0.21","0.00"
"23:29:58","31","21","66.1","30.21","328","3.5","12","0.21","0.00"
"23:34:58","30.9","20.8","65.8","30.21","326","5.9","16.1","0.21","0.00"
"23:39:59","30.9","20.9","66","30.21","328","4.7","10.4","0.21","0.00"
"23:44:59","30.9","21","66.2","30.21","324","4.8","10.4","0.21","0.00"
"23:49:56","30.9","20.9","66.1","30.21","319","6.4","15","0.21","0.00"
"23:54:56","30.8","21.1","66.9","30.21","300","3.7","15","0.21","0.00"
"23:59:56","30.8","21.4","67.7","30.22","308","3.9","12","0.21","0.00"
